Location: Ward Pound Ridge Reservation
(41.2500°N, 73.6000°W)
Time: 02:39:23
(UTC-04:00)

Tiangong 1 - Pass Details

Date: 13 October 2017
Orbit: 292 x 320 km, 42.8° (Epoch: 21 October)

Event Time Altitude Azimuth Distance (km) Brightness Sun altitude
Rises 19:53:58 0° 283° (WNW) 2,040 6.4 -19.1°
Reaches altitude 10° 19:55:59 10° 278° (W) 1,203 4.8 -19.5°
Enters shadow 19:58:04 40° 243° (WSW) 470 1.9 -19.9°
